Location: Alfortville
(48.8058°N, 2.4204°E)
Time: 22:57:13
(UTC+00:00)

SR - Pass Details

Date: 20 April 2026
Orbit: 568 x 852 km, 66.7° (Epoch: 19 May)

Event Time Altitude Azimuth Distance (km) Brightness Sun altitude
Rises 19:12:01 0° 325° (NW) 3,215 ? -4.3°
Reaches altitude 10° 19:15:06 10° 344° (NNW) 2,341 ? -4.8°
Maximum altitude 19:18:50 19° 27° (NNE) 1,868 ? -5.3°
Drops below altitude 10° 19:22:42 10° 71° (ENE) 2,437 ? -5.9°
Enters shadow 19:25:03 - 85° (E) 3,101 ? -6.3°
